Waarnemingen

Advertentie
Mijn weer
Mont-De-Marsan, Frankrijk (7607): temperatuur & dauwpunt: 16.02.2017 11:00:00 - 22.02.2017 11:00:00 (CET)Mont-De-Marsan, Frankrijk (7607): temperatuur 5cm: 16.02.2017 11:00:00 - 22.02.2017 11:00:00 (CET)Mont-De-Marsan, Frankrijk (7607): temperatuur -20cm & temperatuur -100cm: 16.02.2017 11:00:00 - 22.02.2017 11:00:00 (CET)Mont-De-Marsan, Frankrijk (7607): windsnelheid & windstoten: 16.02.2017 11:00:00 - 22.02.2017 11:00:00 (CET)Mont-De-Marsan, Frankrijk (7607): windrichting: 16.02.2017 11:00:00 - 22.02.2017 11:00:00 (CET)Mont-De-Marsan, Frankrijk (7607): luchtdruk: 16.02.2017 11:00:00 - 22.02.2017 11:00:00 (CET)Mont-De-Marsan, Frankrijk (7607): zicht: 16.02.2017 11:00:00 - 22.02.2017 11:00:00 (CET)Mont-De-Marsan, Frankrijk (7607): Zonneschijnduur: 16.02.2017 11:00:00 - 22.02.2017 11:00:00 (CET)Mont-De-Marsan, Frankrijk (7607): neerslag: 16.02.2017 11:00:00 - 22.02.2017 11:00:00 (CET)
Datum & Tijd tt [°C] td [°C] tt 5cm [°C] tt -20cm [°C] tt -100cm [°C] ff [km/u] ff [kn] fx [km/u] fx [kn] dd ppp [hPa] vv [km] sd [min] rr [mm]
22.02.2017 11:00:00 7,5 6,9 8,8 8,8 9,8 0 0 5 3 N 1024,8 25 0 0,0
22.02.2017 10:00:00 6,0 5,7 5,7 8,9 9,8 2 1 4 2 NO 1024,9 18 0 0,0
22.02.2017 09:00:00 4,4 4,1 3,9 8,9 9,8 3 2 5 3 ONO 1025,0 16 0 0,0
22.02.2017 08:00:00 3,5 3,2 2,8 9,0 9,8 3 2 5 3 O 1024,7 0,6 0 0,0
22.02.2017 07:00:00 2,9 2,6 2,4 9,1 9,8 5 3 5 3 ONO 1024,4 0,2 0 0,2
22.02.2017 06:00:00 2,3 2,0 1,0 9,2 9,8 2 1 3 2 O 1024,8 0,3 0 0,0
22.02.2017 05:00:00 2,4 2,0 - - - 0 0 4 2 N 1024,9 0,1 - 0,0
22.02.2017 04:00:00 2,5 2,1 1,7 9,5 9,8 3 1 3 2 ONO 1025,2 0,3 0 0,0
22.02.2017 03:00:00 3,1 2,7 1,5 9,6 9,8 2 1 4 2 ONO 1025,7 0,1 0 0,0
22.02.2017 02:00:00 4,0 3,6 0,3 9,7 9,8 0 0 0 0 N 1025,9 0,2 0 0,2
22.02.2017 01:00:00 3,5 2,8 -0,4 9,8 9,8 0 0 2 1 N 1026,1 0,3 0 0,0
22.02.2017 00:00:00 4,6 3,9 -0,3 9,9 9,7 0 0 2 1 N 1026,1 8 0 0,0
21.02.2017 23:00:00 5,5 4,5 0,5 10,0 9,8 0 0 3 1 N 1026,0 15 0 0,0
21.02.2017 22:00:00 7,0 6,1 1,2 10,0 9,8 0 0 2 1 N 1025,9 16 0 0,0
21.02.2017 21:00:00 8,0 6,5 2,0 10,0 9,8 0 0 3 2 N 1026,0 29 0 0,0
21.02.2017 20:00:00 10,1 7,5 4,6 9,9 9,8 3 1 12 6 WNW 1025,8 60 0 0,0
21.02.2017 19:00:00 12,0 7,7 9,7 9,8 9,8 9 5 18 10 N 1025,5 60 13 0,0
21.02.2017 18:00:00 15,6 6,6 17,5 9,5 9,8 7 4 12 7 NNW 1025,1 60 60 0,0
21.02.2017 17:00:00 16,8 6,9 20,5 9,2 9,7 4 2 11 6 NW 1025,1 60 60 0,0
21.02.2017 16:00:00 16,0 6,4 20,4 9,0 9,7 3 2 14 8 WNW 1025,4 47 60 0,0
21.02.2017 15:00:00 15,9 6,9 21,4 8,7 9,7 4 2 13 7 O 1026,0 60 60 0,0
21.02.2017 14:00:00 15,8 6,2 21,9 8,6 9,8 3 1 13 7 O 1026,9 60 60 0,0
21.02.2017 13:00:00 14,4 5,7 20,9 8,4 9,7 7 4 11 6 ZZO 1027,9 60 60 0,0
21.02.2017 12:00:00 13,2 6,3 18,8 8,4 9,7 4 2 7 4 Z 1028,6 20 60 0,0
21.02.2017 11:00:00 10,7 5,7 13,6 8,5 9,7 0 0 6 3 N 1028,7 16 60 0,0
21.02.2017 10:00:00 6,7 4,7 5,0 8,6 9,7 3 1 4 2 ZO 1028,7 12 60 0,0
21.02.2017 09:00:00 1,8 1,5 -1,4 8,7 9,7 0 0 5 3 N 1028,8 7 14 0,0
21.02.2017 08:00:00 0,3 -0,1 -2,6 8,8 9,7 3 2 5 3 O 1028,7 0,5 0 0,0
21.02.2017 07:00:00 0,6 0,0 -2,4 9,0 9,7 3 2 5 3 ONO 1028,1 0,7 0 0,0
21.02.2017 06:00:00 1,6 1,2 -1,9 9,1 9,7 2 1 4 2 ONO 1028,2 6 0 0,0
21.02.2017 05:00:00 2,0 1,6 - - - 2 1 5 3 O 1028,1 6 - 0,0
21.02.2017 04:00:00 1,7 1,1 -1,3 9,4 9,7 3 2 6 4 O 1028,4 6 0 0,0
21.02.2017 03:00:00 2,1 1,2 -1,0 9,5 9,7 2 1 4 2 ONO 1029,0 10 0 0,0
21.02.2017 02:00:00 3,2 2,5 -0,8 9,6 9,7 0 0 2 1 N 1029,2 0,3 0 0,0
21.02.2017 01:00:00 4,7 4,1 -0,3 9,7 9,7 0 0 5 3 N 1029,2 2,9 0 0,0
21.02.2017 00:00:00 5,2 4,0 0,0 9,8 9,7 0 0 4 2 N 1029,1 7 0 0,0
20.02.2017 23:00:00 6,9 4,6 3,0 9,8 9,7 3 2 5 3 NW 1029,1 10 0 0,0
20.02.2017 22:00:00 8,0 5,5 3,8 9,9 9,7 3 2 7 4 NNW 1029,3 15 0 0,0
20.02.2017 21:00:00 7,0 4,8 2,7 9,9 9,7 3 1 4 2 WNW 1029,1 13 0 0,0
20.02.2017 20:00:00 10,7 5,7 5,2 9,8 9,7 3 2 5 3 ZZW 1028,5 19 0 0,0
20.02.2017 19:00:00 11,7 5,3 10,2 9,8 9,7 0 0 6 4 N 1028,3 16 0 0,0
20.02.2017 18:00:00 12,5 5,4 12,3 9,6 9,7 5 3 14 8 ZW 1028,1 46 0 0,0
20.02.2017 17:00:00 12,8 5,0 13,3 9,6 9,7 5 3 11 6 NNW 1028,1 47 0 0,0
20.02.2017 16:00:00 12,8 5,7 13,5 9,4 9,6 8 4 13 7 WZW 1028,2 52 0 0,0
20.02.2017 15:00:00 12,7 6,1 14,1 9,3 9,6 7 4 11 6 WNW 1028,6 50 0 0,0
20.02.2017 14:00:00 12,5 7,6 14,8 9,2 9,7 4 2 8 4 N 1029,1 18 0 0,0
20.02.2017 13:00:00 12,3 7,6 13,8 9,1 9,6 2 1 7 4 ZZW 1029,7 17 0 0,0
20.02.2017 12:00:00 11,2 8,2 11,7 9,1 9,6 2 1 9 5 Z 1029,8 10 0 0,0
20.02.2017 11:00:00 9,7 8,3 9,4 9,1 9,6 5 3 9 5 ZZO 1029,7 7 0 0,0
20.02.2017 10:00:00 8,6 7,7 8,5 9,2 9,7 4 2 6 4 O 1029,8 4,8 0 0,0
20.02.2017 09:00:00 8,4 7,5 7,4 9,2 9,6 0 0 14 7 N 1029,7 5 0 0,0
20.02.2017 08:00:00 7,5 6,8 7,2 9,2 9,6 3 1 7 4 OZO 1029,2 4,4 0 0,0
20.02.2017 07:00:00 7,2 6,6 7,0 9,2 9,6 4 2 5 3 O 1029,0 3,5 0 0,0
20.02.2017 06:00:00 7,1 6,4 6,7 9,3 9,6 3 1 3 2 O 1028,9 4,6 0 0,0
20.02.2017 05:00:00 7,2 6,5 6,6 9,4 9,6 0 0 0 0 N 1029,0 5 0 0,0
20.02.2017 04:00:00 7,0 6,3 6,6 9,4 9,6 0 0 3 2 N 1029,1 5 0 0,0
20.02.2017 03:00:00 7,3 6,6 7,1 9,5 9,6 0 0 7 4 N 1029,7 3,3 0 0,0
20.02.2017 02:00:00 7,4 6,8 7,1 9,6 9,6 3 2 6 3 NNO 1029,8 3,4 0 0,0
20.02.2017 01:00:00 7,1 6,7 5,1 9,7 9,6 4 2 6 3 Z 1029,6 2,6 0 0,0
20.02.2017 00:00:00 6,0 5,4 2,6 9,8 9,6 3 1 5 3 W 1030,0 0,1 0 0,0
19.02.2017 23:00:00 6,0 4,8 -0,1 9,8 9,6 0 0 8 4 N 1029,8 5 0 0,0
19.02.2017 22:00:00 6,8 5,9 1,4 9,9 9,6 6 3 9 5 NW 1029,2 4,0 0 0,0
19.02.2017 21:00:00 7,5 6,3 1,8 9,9 9,6 6 4 13 7 W 1029,0 14 0 0,0
19.02.2017 20:00:00 9,4 6,3 7,2 9,8 9,6 11 6 18 10 WNW 1028,5 30 0 0,0
19.02.2017 19:00:00 11,0 5,7 8,5 9,8 9,6 10 5 21 11 WNW 1027,9 22 11 0,0
19.02.2017 18:00:00 13,8 4,6 14,2 9,6 9,6 10 5 21 11 NW 1027,4 60 50 0,0
19.02.2017 17:00:00 15,1 5,6 15,7 9,4 9,6 13 7 20 11 WNW 1027,2 55 39 0,0
19.02.2017 16:00:00 15,2 7,7 18,3 9,2 9,6 8 5 16 9 W 1027,3 20 60 0,0
19.02.2017 15:00:00 13,6 8,2 16,0 9,1 9,5 3 2 8 5 Z 1028,1 19 54 0,0
19.02.2017 14:00:00 10,9 8,8 10,8 9,0 9,6 3 2 10 5 ZW 1028,4 12 5 0,0
19.02.2017 13:00:00 9,0 8,4 9,8 9,0 9,6 7 4 19 10 NNW 1029,2 6 0 0,0
19.02.2017 12:00:00 8,8 8,5 9,2 9,0 9,6 9 5 15 8 W 1029,2 1,4 0 0,0
19.02.2017 11:00:00 8,0 7,7 8,8 9,0 9,6 10 5 16 8 W 1029,2 1,3 0 0,0
19.02.2017 10:00:00 8,1 7,8 8,5 9,0 9,6 10 5 16 8 WZW 1028,5 0,4 0 0,0
19.02.2017 09:00:00 8,1 7,8 7,7 9,0 9,6 6 3 12 7 WZW 1027,8 0,2 0 0,0
19.02.2017 08:00:00 7,7 7,4 2,9 9,1 9,5 6 4 9 5 W 1027,1 0,1 0 0,2
19.02.2017 07:00:00 7,8 7,4 - - - 2 1 4 2 Z 1026,3 0,8 - -
19.02.2017 06:00:00 7,7 7,3 7,3 9,2 9,6 0 0 4 2 N 1026,0 1,8 0 0,0
19.02.2017 05:00:00 7,7 7,4 7,6 9,2 9,5 0 0 4 2 N 1025,5 0,5 0 0,0
19.02.2017 04:00:00 7,8 7,5 7,0 9,3 9,5 0 0 3 2 N 1024,9 0,2 0 0,0
19.02.2017 03:00:00 6,8 6,5 - - - 0 0 4 2 N 1024,8 0,1 - 0,0
19.02.2017 02:00:00 6,4 6,1 2,7 9,5 9,5 0 0 3 2 N 1024,4 0,1 0 0,0
19.02.2017 01:00:00 4,5 3,9 - - - 0 0 0 0 N 1024,1 0,2 - -
19.02.2017 00:00:00 6,0 5,1 0,2 9,7 9,5 2 1 5 3 ZW 1023,7 0,3 0 0,0
18.02.2017 23:00:00 8,4 7,8 1,4 9,7 9,5 3 2 8 4 ZW 1023,4 3,4 0 0,0
18.02.2017 22:00:00 8,6 7,7 5,5 9,7 9,5 6 3 15 8 WZW 1023,0 4,7 0 0,0
18.02.2017 21:00:00 9,9 8,5 7,6 9,7 9,5 14 8 18 10 W 1022,5 10 0 0,0
18.02.2017 20:00:00 10,6 7,3 5,0 9,6 9,5 11 6 21 11 W 1021,7 20 0 0,0
18.02.2017 19:00:00 13,7 4,3 6,0 9,4 9,5 0 0 8 4 N 1020,9 55 9 0,0
18.02.2017 18:00:00 17,3 3,2 19,7 9,1 9,5 2 1 6 4 ONO 1020,3 59 57 0,0
18.02.2017 17:00:00 18,2 3,6 22,6 8,9 9,5 5 3 21 11 N 1019,9 60 60 0,0
18.02.2017 16:00:00 19,0 5,1 23,9 8,6 9,5 3 2 10 6 N 1020,0 47 60 0,0
18.02.2017 15:00:00 18,3 4,5 - - - 5 3 13 7 NW 1020,2 45 - 0,0
18.02.2017 14:00:00 17,8 5,4 23,8 8,1 9,5 5 3 14 7 Z 1020,8 60 60 0,0
18.02.2017 13:00:00 17,0 5,3 22,7 8,0 9,5 4 2 9 5 ONO 1021,6 20 60 0,0
18.02.2017 12:00:00 14,6 5,1 17,1 8,0 9,5 2 1 8 4 OZO 1022,3 19 60 0,0
18.02.2017 11:00:00 10,5 4,8 10,9 8,1 9,5 3 1 8 4 ZO 1022,6 19 60 0,0
18.02.2017 10:00:00 5,7 3,7 2,8 8,2 9,5 6 3 10 5 O 1022,7 18 60 0,0
18.02.2017 09:00:00 1,4 0,8 - - - 8 4 9 5 ONO 1022,9 13 - 0,2
18.02.2017 08:00:00 -0,6 -1,4 -3,2 8,6 9,5 5 3 8 4 ONO 1022,7 16 0 0,0
18.02.2017 07:00:00 0,0 -0,9 -3,2 8,7 9,5 5 3 7 4 O 1022,5 14 0 0,0
18.02.2017 06:00:00 0,4 -0,3 -2,3 8,8 9,5 6 4 9 5 ONO 1023,0 15 0 0,0
18.02.2017 05:00:00 0,4 -0,6 -2,4 9,0 9,5 5 3 8 4 ONO 1023,2 12 0 0,0
18.02.2017 04:00:00 1,9 1,2 -1,6 9,1 9,4 5 3 7 4 ONO 1023,5 15 0 0,0
18.02.2017 03:00:00 2,2 1,3 -0,3 9,2 9,5 6 3 8 4 ONO 1024,0 9 0 0,0
18.02.2017 02:00:00 3,2 2,3 0,2 9,4 9,5 3 1 5 3 O 1024,5 16 0 0,0
18.02.2017 01:00:00 4,0 2,5 0,7 9,5 9,4 4 2 5 3 NO 1024,8 20 0 0,0
18.02.2017 00:00:00 5,3 3,6 1,7 9,6 9,5 3 2 8 5 O 1025,2 27 0 0,0
17.02.2017 23:00:00 5,7 4,2 - - - 2 1 8 4 ONO 1025,4 19 - 0,0
17.02.2017 22:00:00 7,9 5,7 2,4 9,7 9,5 4 2 6 3 ONO 1025,5 44 0 0,0
17.02.2017 21:00:00 9,5 5,7 - - - 4 2 13 7 ONO 1025,6 45 - 0,0
17.02.2017 20:00:00 10,4 5,8 4,6 9,6 9,5 11 6 16 8 NO 1025,5 60 0 0,0
17.02.2017 19:00:00 12,6 4,8 6,1 9,4 9,4 4 2 5 3 NNO 1025,3 60 8 0,0
17.02.2017 18:00:00 17,2 4,8 18,6 9,2 9,5 5 3 9 5 NNO 1024,9 60 60 0,0
17.02.2017 17:00:00 18,8 2,6 23,3 8,9 9,4 4 2 13 7 NNW 1025,1 60 60 0,0
17.02.2017 16:00:00 19,3 3,0 24,0 8,7 9,4 5 3 13 7 NW 1025,5 60 60 0,0
17.02.2017 15:00:00 18,9 4,6 24,9 8,4 9,4 3 2 13 7 N 1026,1 60 60 0,0
17.02.2017 14:00:00 18,8 5,9 24,5 8,2 9,5 2 1 9 5 ZW 1026,9 60 60 0,0
17.02.2017 13:00:00 17,1 7,2 22,6 8,1 9,4 3 2 7 4 OZO 1028,0 57 60 0,0
17.02.2017 12:00:00 14,3 6,9 18,6 8,1 9,4 3 1 6 3 O 1028,8 40 60 0,0
17.02.2017 11:00:00 10,0 5,6 - - - 4 2 5 3 ONO 1029,1 19 - 0,0
17.02.2017 10:00:00 5,2 3,4 4,4 8,4 9,4 3 1 8 5 O 1029,2 18 60 0,0
17.02.2017 09:00:00 1,4 1,0 -3,5 8,5 9,4 3 2 6 3 O 1029,2 14 28 0,0
17.02.2017 08:00:00 -0,6 -1,3 -3,6 8,7 9,4 3 2 6 3 ONO 1029,1 18 0 0,0
17.02.2017 07:00:00 -0,8 -1,6 -3,0 8,8 9,4 5 3 6 3 O 1029,1 17 0 0,0
17.02.2017 06:00:00 0,0 -0,9 -2,5 9,0 9,4 5 3 6 3 NO 1029,3 16 0 0,0
17.02.2017 05:00:00 0,9 0,2 -2,4 9,1 9,4 3 2 8 4 O 1029,2 2,5 0 0,2
17.02.2017 04:00:00 1,6 1,0 -1,5 9,3 9,4 5 3 8 4 ONO 1029,3 13 0 0,0
17.02.2017 03:00:00 1,4 0,5 -1,2 9,4 9,4 6 4 7 4 ONO 1029,8 10 0 0,0
17.02.2017 02:00:00 2,6 1,9 -0,8 9,6 9,4 5 3 8 4 ONO 1030,0 15 0 0,0
17.02.2017 01:00:00 3,4 2,4 0,3 9,7 9,4 4 2 6 4 NO 1030,4 18 0 0,0
17.02.2017 00:00:00 4,9 4,2 0,5 9,8 9,3 0 0 4 2 N 1030,6 10 0 0,0
16.02.2017 23:00:00 5,0 3,8 1,2 9,9 9,3 3 1 7 4 NO 1030,6 19 0 0,0
16.02.2017 22:00:00 7,0 5,5 2,3 10,0 9,3 0 0 6 4 N 1030,7 43 0 0,0
16.02.2017 21:00:00 9,1 6,7 3,2 10,0 9,3 4 2 5 3 ONO 1030,5 40 0 0,0
16.02.2017 20:00:00 10,8 7,3 4,7 9,9 9,3 5 3 14 8 O 1030,5 60 0 0,0
16.02.2017 19:00:00 11,8 6,5 6,7 9,8 9,3 8 5 11 6 NNO 1030,1 60 6 0,0
16.02.2017 18:00:00 16,2 6,9 17,2 9,6 9,3 8 5 11 6 NNO 1029,6 60 60 0,0
16.02.2017 17:00:00 18,1 5,6 22,7 9,3 9,3 5 3 14 7 NNO 1029,5 60 60 0,0
16.02.2017 16:00:00 18,4 6,6 24,1 9,0 9,3 6 3 12 7 ONO 1029,5 60 60 0,0
16.02.2017 15:00:00 17,7 7,4 22,5 8,8 9,3 6 3 11 6 NO 1030,0 60 58 0,0
16.02.2017 14:00:00 16,3 8,5 20,6 8,7 9,3 5 3 13 7 O 1030,8 60 60 0,0
16.02.2017 13:00:00 12,8 8,5 - - - 4 2 13 7 O 1031,9 45 - -
16.02.2017 12:00:00 9,6 8,0 - - - 11 6 15 8 O 1032,5 16 - 0,0
16.02.2017 11:00:00 7,8 7,2 8,2 8,6 9,2 6 3 14 8 OZO 1032,7 14 0 0,0

tt = temperatuur
td = dauwpunt
tt 5cm = temperatuur 5cm
tt -20cm = temperatuur -20cm
tt -100cm = temperatuur -100cm
ff = windsnelheid
fx = windstoten
dd = windrichting
ppp = luchtdruk
vv = zicht
sd = Zonneschijnduur
rr = neerslag

Weerstations in de omgeving